Find PAS 8

NORAD ID: 25522 Int'l Des: 1998-065 Owner: PAN Country: US operational
HEO

現在のビュー

3D地球を読み込み中...

About PAS 8

PAS 8 (NORAD 25522) is a satellite launched Nov 4, 1998 by PAN of US. It operates in HEO orbit with a mass of 3800.00 kg.

次回通過

Passes for default location (London). Set your location on the main map for personalized predictions.

高度履歴

Loading altitude history...

軌道要素

1 25522U 98065A 26195.28115613 -.00000148 00000-0 00000-0 0 9998
2 25522 9.2147 63.3297 0283985 307.2139 57.0127 0.95185221 45072
Epoch: Jul 14, 2026 • Age: 16 hours

現在のステータス

高度 36877.2 km
遠地点 / 近地点 N/A
速度 3.05 km/s
衛星直下点 -7.51°S, 18.32°E
打ち上げ日 Nov 4, 1998
運用期間 27.6 years
タイプ other

技術仕様

分類 Payload
質量 3800.00 kg
乾燥質量 1400.00 kg
総質量 3800.00 kg
長さ 6.10 m
直径 2.40 m
スパン 26.00 m
形状 Box + 2 Pan
製造者 LOR
バスタイプ FS-1300
フェーズステータス Unknown Active Status
所有者/国 PAN/US

Most Searched